Preview of NWS' New Version of Forecast
This preview is not operational and should not be used for support decisions.

Regional Weather Roundup (RWR)

Issued by Gray - Portland, ME (GYX)

                            
000
ASUS41 KGYX 210705
RWRGYX
WEATHER ROUNDUP FOR MAINE AND NEW HAMPSHIRE
NATIONAL WEATHER SERVICE GRAY ME
300 AM EDT WED AUG 21 2019

MEZ002-005-006-010-012-015-018-020-021-024-026-027-029-210800-
MAINE
  
CITY           SKY/WX    TMP DP  RH WIND       PRES   REMARKS
PORTLAND       FAIR      63  59  87 CALM      30.01F                  
SANFORD        FAIR      54  53  97 CALM      30.02F                  
BAR HARBOR     FAIR      60  58  92 CALM      30.04R                  
WISCASSET      FAIR      57  55  93 CALM      30.03S                  
ROCKLAND       MOCLDY    56  55  97 CALM      30.03R                  
FRYEBURG       FAIR      54  53  97 CALM      30.02F                  
LEWISTONAUBURN FAIR      57  56  96 CALM      30.02F                  
AUGUSTA        FAIR      61  57  87 S3        30.02S                  
WATERVILLE     FAIR      59  57  93 S3        29.99F                  
BANGOR         FAIR      61  57  87 CALM      30.02S                  
GREENVILLE     NOT AVBL                                               
MILLINOCKET    FAIR      58  55  90 CALM      30.01S                  
HOULTON        FAIR      55  52  89 S6        29.98S                  
PRESQUE ISLE   FAIR      54  52  93 CALM      29.98F                  
FRENCHVILLE    FAIR      60  51  72 S5        29.96S                  
CARIBOU        FAIR      59  54  83 CALM      29.96F                  
$$

NHZ002-005-008-009-011-012-014-210800-
NEW HAMPSHIRE
  
CITY           SKY/WX    TMP DP  RH WIND       PRES   REMARKS
ROCHESTER      FAIR      60  57  89 CALM      30.02F                  
NASHUA         FAIR      63  62  97 CALM      30.03F                  
MANCHESTER     FAIR      65  61  87 CALM      30.01F                  
CONCORD        FAIR      58  56  93 CALM      30.03F                  
LACONIA        FAIR      60  58  92 CALM      30.02F                  
PLYMOUTH       FAIR      54  53  96 CALM      30.04S FOG              
BERLIN         NOT AVBL                                               
WHITEFIELD     FAIR      50  48  93 CALM      30.03F                  
JAFFREY        FAIR      60  57  89 CALM      30.06F                  
KEENE          FAIR      58  58 100 CALM      30.05S                  
LEBANON        FAIR      57  53  86 CALM      30.02F                  
MT WASHINGTON  MOCLDY    50  43  76 W21         N/A                   
$$

VTZ005-007-008-210800-
VERMONT
  
CITY           SKY/WX    TMP DP  RH WIND       PRES   REMARKS
ST JOHNSBURY     N/A     57  56  96 MISG      30.00F                  
MONTPELIER     FAIR      57  55  93 NE3       30.05F                  
BURLINGTON     FAIR      64  58  80 CALM      29.97S                  
$$

MAZ007-012-024-CTZ003-RIZ002-NYZ038-NYZ072-210800-
SOUTHERN NEW ENGLAND AND NY
  
CITY           SKY/WX    TMP DP  RH WIND       PRES   REMARKS
BOSTON         FAIR      71  61  70 SW3       30.03F                  
WORCESTER      FAIR      67  62  84 SW7       30.06F                  
NANTUCKET      FAIR      68  67  96 S7        30.06F FOG              
PROVIDENCE     FAIR      68  64  87 CALM      30.05F                  
HARTFORD       FAIR      70  66  87 SE3       30.02F                  
ALBANY         MOCLDY    69  64  84 CALM      29.99F                  
NEW YORK CITY  FAIR      78  72  81 S9        30.01F                  
$$

ANZ081-ANZ082-ANZ150-NHZ014-MEZ023>029-210800-
COASTAL MARINE OBSERVATIONS
  
STATION/POSITION TIME  TEMP    WIND        PRES    WAVE
                       AIR SEA DIR/SP/G            HT/PER
                 (UTC) (F)     (DEG/KT/KT) (MB)    (FT/S)
MATINICUS ROCK   0650   63                 1016.5R
ISLE OF SHOALS   0600   67     250/  4/  4 1016.3R
JEFFREYS LEDGE   0638      67                N/A     2/11
CASHES LEDGE BUO 0550   65 63  170/  6/  8 1017.1    2/11
GEORGES BANK BUO 0640   67 69   CALM  /  2 1019.1R
$$

.............KEY..............
   WCI - WIND CHILL
   TC  - TEMPERATURE IN CELSIUS
   VSB - VISIBILITY IN MILES
   HX  - HEAT INDEX
   FAIR- INDICATES FEW OR NO CLOUDS BELOW 12,000 FT, WITH NO 
         SIGNIFICANT WEATHER AND/OR OBSTRUCTIONS TO VISIBILITY.